This is the latest recevied weather packets stored in our database for station/object IK1PCD-11. If no packets are shown the sender has not sent any weather packets the latest 10 day(s).
| Time | Temp. | Humidity | Pressure | Rain* | Wind** | Luminosity | Snow |
|---|---|---|---|---|---|---|---|
| 1787678751 | 18.89° C | 100% | 1017.4 hPa | - | - | - | - |
| 1787677850 | 19.44° C | 100% | 1016.9 hPa | - | - | - | - |
| 1787674249 | 21.11° C | 100% | 1016.7 hPa | - | - | - | - |
| 1787673349 | 21.67° C | 100% | 1016.4 hPa | - | - | - | - |
| 1787672451 | 21.67° C | 100% | 1016.4 hPa | - | - | - | - |
| 1787671551 | 21.67° C | 100% | 1016.3 hPa | - | - | - | - |
| 1787670651 | 21.67° C | 100% | 1016.3 hPa | - | - | - | - |
| 1787669751 | 21.67° C | 100% | 1016 hPa | - | - | - | - |
| 1787668851 | 21.67° C | 100% | 1016 hPa | - | - | - | - |
| 1787667950 | 22.22° C | 100% | 1015.9 hPa | - | - | - | - |
| 1787667050 | 22.22° C | 100% | 1015.6 hPa | - | - | - | - |
| 1787666150 | 22.78° C | 100% | 1015.5 hPa | - | - | - | - |
| 1787665250 | 22.78° C | 100% | 1015.2 hPa | - | - | - | - |
| 1787664350 | 22.78° C | 100% | 1015.2 hPa | - | - | - | - |
| 1787663450 | 22.22° C | 100% | 1015.2 hPa | - | - | - | - |
| 1787659850 | 22.22° C | 100% | 1015.1 hPa | - | - | - | - |
| 1787658949 | 21.67° C | 100% | 1015.4 hPa | - | - | - | - |
| 1787658049 | 22.22° C | 100% | 1015.5 hPa | - | - | - | - |
| 1787657149 | 21.67° C | 100% | 1015.3 hPa | - | - | - | - |
| 1787656249 | 21.11° C | 100% | 1015.3 hPa | - | - | - | - |
| 1787655349 | 20.56° C | 100% | 1015.4 hPa | - | - | - | - |
| 1787654449 | 19.44° C | 100% | 1015.3 hPa | - | - | - | - |
| 1787653549 | 19.44° C | 100% | 1015.3 hPa | - | - | - | - |
| 1787652648 | 19.44° C | 100% | 1015.3 hPa | - | - | - | - |
| 1787651748 | 18.89° C | 100% | 1015.3 hPa | - | - | - | - |
* Rain since midnight (hover to see other rain measurements)
** Current wind speed in m/s (hover to see current wind gust speed)